Startseite
Über Mich
AHP4
Galerie
Sehschlangen
Tourenbuch
Bookmarks
Elektronik
Bewertung
Geschichten
[Tagesmessung] [Jahreswerte] [Information]

Messwerte vom 24.05.2022

Die letzten Messwerte von 23:58:48 Uhr:
KategorieMesswert
Temperatur [°C]11
Luftdruck [mBar]995
Sonneneinstrahlung0
Wind [km/h]0 aus Südost
Niederschlag [l/m²]0
rel.Luftfeucht.79.7%
CO2 [ppm]480

Diagramme
Messwerte vom 24.05.2022
Tagesaggregation
KategorieMinimumMaximumSchnittSumme
Temperatur [°C]112617.4938
Luftdruck [mBar]982995988.7250
Sonneneinstrahlung247139.0250
Wind [km/h]20
rF [%]3596.571.15
Niederschlag [l/m²]1.2875
CO2 [ppm]404482442.2
Einordnung alsVegetationstag
Sommertag

Messungen an benachbarten Tagen: Zur Jahresaggregation 2022
Tabelle aller Messwerte
UhrzeitTemperatur [°C]Luftdruck [mBar]SonneWind [km/h]RichtungRegen [l/m²]rF [%]CO2 [ppm]
00:01:47 19 983 0 12 S 0 67.1 413
00:04:49 19 983 0 16 S 0 67 419
00:07:49 19 983 0 20 S 0 67.2 413
00:10:50 18 983 0 11 SW 0 68.2 410
00:13:46 18 982 0 16 S 0 69.1 410
00:16:47 18 983 0 10 SO 0 69.9 410
00:19:47 18 983 0 8 SW 0 70.3 416
00:22:44 18 983 0 4 S 0 72.2 419
00:25:45 18 983 0 3 S 0 72.9 418
00:28:46 18 983 0 8 SO 0 73.9 412
00:31:48 18 983 0 3 SO 0 74.6 408
00:34:47 17 982 0 7 S 0 74.6 404
00:37:44 17 983 0 2 O 0 75.1 416
00:40:47 17 982 0 5 NO 0 75.8 419
00:43:45 17 984 0 8 S 0 76.3 415
00:46:45 17 983 0 6 S 0 76.3 404
00:49:47 17 983 0 4 S 0 76.3 404
00:52:46 17 983 0 9 SO 0 76.7 413
00:55:46 17 983 0 8 S 0 77 418
00:58:48 17 982 0 9 S 0 77.1 419
01:01:46 17 983 0 5 S 0 77.2 421
01:04:47 17 982 0 3 SO 0 77.2 415
01:07:46 17 983 0 8 S 0 77.5 413
01:10:47 17 982 0 6 S 0 77.6 409
01:13:44 17 982 0 1 S 0 77.4 404
01:16:47 17 983 0 3 S 0 77.6 407
01:19:46 17 983 0 2 SO 0 77.6 412
01:22:46 17 983 0 3 SW 0 77.7 413
01:25:44 18 983 0 4 S 0 77.9 413
01:28:46 18 983 0 7 S 0 78.3 415
01:31:46 18 983 0 2 SW 0 77.9 421
01:34:48 18 983 0 6 S 0 77.8 422
01:37:47 18 983 0 4 S 0 77.9 418
01:40:47 18 983 0 3 SO 0 77.5 418
01:43:45 18 983 0 8 S 0 77.4 413
01:46:45 17 983 0 3 O 0 77.9 413
01:49:46 17 983 0 3 SO 0 78.2 413
01:52:48 17 983 0 4 SO 0 78.6 419
01:55:46 17 982 0 3 S 0 78.7 413
01:58:48 17 983 0 6 SO 0 79.1 407
02:01:49 17 983 0 2 SO 0 79.5 407
02:04:45 17 983 0 6 SO 0 79.4 413
02:07:48 17 983 0 2 SO 0 80.2 413
02:10:47 17 984 0 2 S 0 80.9 421
02:13:48 17 983 0 3 SO 0 81 418
02:16:47 17 982 0 4 SW 0 80.7 416
02:19:47 17 982 0 2 S 0 80.4 415
02:22:49 17 983 0 2 S 0 80.8 416
02:25:47 17 983 0 3 S 0 81 421
02:28:48 17 983 0 5 S 0 81.2 422
02:31:47 17 983 0 3 SO 0 81.2 424
02:34:48 17 983 0 5 SW 0 80.8 422
02:37:46 17 983 0 2 S 0 81.1 420
02:40:45 17 983 0 3 S 0 81.7 424
02:43:48 17 983 0 5 S 0 82.3 419
02:46:46 18 983 0 3 S 0 83.8 416
02:49:48 18 983 0 15 S 0 83.7 416
02:52:46 18 983 0 8 0 83.7 418
02:55:47 18 984 0 3 O 0 83.6 416
02:58:48 18 984 0 2 SO 0 83.5 422
03:01:48 18 983 0 11 O 0 83.9 418
03:04:46 18 983 0 4 W 0 83.9 416
03:07:47 18 984 0 2 S 0 84.1 411
03:10:45 18 984 0 6 S 0 84.6 415
03:13:48 18 983 0 10 W 0 85 413
03:16:47 18 983 0 9 S 0 85.5 410
03:19:47 18 983 0 3 SO 0 86.1 419
03:22:45 17 984 0 7 O 0 86.7 416
03:25:47 17 984 0 5 SW 0 87.6 413
03:28:45 17 984 0 4 S 0 88.2 421
03:31:47 17 984 0 6 S 0 89.9 422
03:34:47 17 983 0 6 SO 0 91.3 424
03:37:48 16 984 0 3 NO 0 91.8 424
03:40:49 16 984 0 3 NO 0 92.3 422
03:43:48 16 984 0 4 SW 0 92.9 418
03:46:46 16 984 0 5 O 0 92.9 418
03:49:47 16 984 0 4 O 0 92.9 422
03:52:47 16 984 0 2 NW 0 93 422
03:55:48 16 984 0 4 W 0 92.7 422
03:58:47 16 984 0 3 S 0 92.7 420
04:01:46 16 984 0 7 S 0 92.7 425
04:04:46 16 984 0 2 SW 0 92.7 424
04:07:49 16 984 0 3 SW 0 92.7 431
04:10:46 15 984 0 5 O 0 92.6 427
04:13:46 15 984 0 4 S 0 92.1 434
04:16:45 15 984 0 2 S 0 91.7 425
04:19:44 15 984 0 4 N 0 91.7 430
04:22:46 15 984 0 4 O 0 91.5 422
04:25:47 15 984 0 13 SO 0 91.3 422
04:28:44 15 984 0 3 O 0 91.1 427
04:31:47 15 984 0 4 O 0 90.9 431
04:34:47 15 984 0 3 SW 0 90.9 433
04:37:45 15 985 0 1 O 0 90.9 433
04:40:47 15 985 0 0 O 0 91 436
04:43:45 15 984 0 4 W 0 91.2 436
04:46:46 15 985 0 7 SO 0 91.3 431
04:49:46 15 985 0 2 S 0 91.3 439
04:52:46 15 984 0 7 SW 0 91.4 436
04:55:44 15 985 4 3 N 0 91.5 443
04:58:47 15 985 5 3 SO 0 91.4 442
05:01:45 15 985 7 6 SO 0 91.3 439
05:04:46 15 985 10 1 SO 0 91.3 425
05:07:47 15 985 16 3 SW 0 90.9 430
05:10:47 15 985 29 5 S 0 90.7 439
05:13:46 15 985 35 3 0 90.6 437
05:16:45 15 985 44 1 S 0 90.3 433
05:19:45 15 985 59 1 W 0 90.1 430
05:22:46 15 986 48 3 S 0 90 433
05:25:48 15 985 51 2 S 0 89.5 442
05:28:48 15 986 55 3 S 0 89.1 442
05:31:49 15 986 62 0 SW 0 89 436
05:34:47 15 986 62 1 S 0 89 439
05:37:49 15 986 64 0 S 0 89 439
05:40:47 15 987 62 3 S 0 88.9 433
05:43:48 15 986 56 5 SW 0 89 433
05:46:48 15 986 56 2 SW 0 89.2 431
05:49:47 15 986 51 1 W 0 89.3 433
05:52:49 15 986 52 0 SW 0 89.1 433
05:55:47 15 986 75 4 S 0 89 437
05:58:45 15 985 78 0 NO 0 89 440
06:01:48 15 985 117 2 S 0 89.1 440
06:04:48 15 986 155 1 S 0 88.4 440
06:07:47 15 986 177 9 NW 0 87.9 445
06:10:48 15 987 179 0 SW 0 87.6 448
06:13:49 15 986 178 2 O 0 87.3 445
06:16:49 15 985 170 1 O 0 87.3 446
06:19:50 15 987 169 0 SW 0 87.2 440
06:22:49 15 986 173 0 O 0 87.1 439
06:25:48 15 986 168 0 SO 0 86.9 442
06:28:48 14 986 169 1 W 0 86.8 440
06:31:49 14 987 173 0 NW 0 86.8 442
06:34:50 14 986 179 2 NW 0 86.9 436
06:37:49 14 986 185 1 W 0 87.1 436
06:40:49 14 986 192 2 SW 0 87.4 442
06:43:47 14 987 194 1 SO 0 87.5 439
06:46:46 14 987 196 4 O 0 87.6 442
06:49:48 14 986 197 0 SO 0 87.4 442
06:52:49 14 987 201 0 SO 0 87.3 433
06:55:49 15 987 201 1 NO 0 87.1 431
06:58:48 15 986 200 4 SW 0 86 432
07:01:47 15 986 199 1 NW 0 85.4 439
07:04:48 16 987 200 1 SW 0 84.3 439
07:07:49 16 987 199 2 S 0 82.6 445
07:10:48 16 987 198 6 S 0 81.7 447
07:13:51 16 987 197 3 SO 0 81 445
07:16:48 16 987 194 3 NW 0 80.7 441
07:19:48 16 986 194 1 W 0 79.5 442
07:22:48 16 987 194 2 S 0 78.4 439
07:25:47 17 986 197 2 W 0 78.4 442
07:28:49 17 986 201 0 S 0 76.1 448
07:31:48 17 987 205 2 S 0 75.4 453
07:34:46 17 987 209 0 NO 0 74.5 442
07:37:47 18 987 212 8 SW 0 73.6 436
07:40:47 18 987 214 1 SW 0 72.9 436
07:43:50 19 987 213 7 SW 0 69.6 433
07:46:47 20 987 213 0 N 0 67.4 442
07:49:49 20 987 212 1 SW 0 64 439
07:52:47 20 987 213 2 SW 0 63.3 445
07:55:46 20 987 211 0 W 0 64.1 442
07:58:48 19 987 210 4 SW 0 65.5 445
08:01:49 18 987 210 3 W 0 67.6 439
08:04:48 18 987 210 4 SW 0 68 436
08:07:49 18 987 212 10 SW 0 69 437
08:10:48 17 987 212 1 SW 0 71.2 442
08:13:46 17 987 213 0 O 0 72.4 441
08:16:47 17 987 213 4 S 0 73.9 440
08:19:49 17 987 212 1 SW 0 73.9 442
08:22:49 17 987 212 7 SW 0 73.9 439
08:25:47 17 987 215 1 S 0 74.5 439
08:28:46 17 987 217 3 S 0 74.7 433
08:31:47 17 987 218 4 SW 0 74.5 436
08:34:48 17 987 218 6 NW 0 73.4 436
08:37:47 18 987 217 4 SW 0 72.6 445
08:40:48 18 987 217 2 NO 0 72.5 445
08:43:47 18 987 218 4 SW 0 72.4 439
08:46:47 18 987 218 4 NW 0 72.7 442
08:49:46 18 987 217 1 S 0 73.1 442
08:52:48 18 987 217 3 SW 0 73.1 442
08:55:49 18 988 217 3 O 0 72.6 436
08:58:48 18 987 215 1 O 0 72.6 439
09:01:50 18 987 215 2 SO 0 72.8 442
09:04:47 18 987 217 3 S 0 72.7 443
09:07:49 18 987 219 2 SW 0 72.4 442
09:10:47 18 987 221 2 S 0 73 446
09:13:46 18 987 221 6 N 0 71.8 439
09:16:47 18 987 220 4 SW 0 71.5 440
09:19:46 18 987 219 5 S 0 72.3 436
09:22:48 18 987 219 2 SO 0 71.8 442
09:25:48 18 987 220 1 O 0 71.1 442
09:28:50 18 987 221 1 SO 0 72 443
09:31:49 18 987 224 0 S 0 70.8 444
09:34:46 18 987 224 3 SO 0 70.6 442
09:37:52 19 987 224 5 SO 0 69.7 442
09:40:50 19 987 224 5 SO 0 69.6 441
09:43:50 19 987 223 1 SO 0 68.7 445
09:46:48 19 987 222 3 SO 0 68.9 442
09:49:48 19 988 221 2 S 0 68.5 442
09:52:49 19 987 220 1 SO 0 68 436
09:55:48 19 988 220 1 W 0 68.3 439
09:58:50 19 987 219 5 SO 0 68.5 439
10:01:49 19 987 220 3 NO 0 67.9 441
10:04:47 19 988 225 6 W 0 68.5 445
10:07:47 19 987 224 5 SW 0 67.7 443
10:10:50 20 987 219 4 SW 0 67 450
10:13:47 20 987 224 6 NW 0 65.6 444
10:16:48 20 987 219 3 S 0 65.1 443
10:19:49 20 987 210 2 S 0 66 442
10:22:50 19 988 213 2 SW 0 66.5 442
10:25:48 19 987 211 6 S 0 66.7 442
10:28:50 19 987 221 1 SO 0 68.2 444
10:31:47 20 988 227 6 W 0 68 440
10:34:47 20 987 227 3 W 0 67.1 439
10:37:48 21 988 224 6 SO 0 63.7 437
10:40:49 21 988 223 2 O 0 62 442
10:43:48 21 987 225 5 S 0 61.9 440
10:46:47 21 987 224 4 SW 0 61.8 436
10:49:46 20 987 224 3 S 0 61.4 446
10:52:48 20 987 227 1 S 0 62.8 440
10:55:48 20 987 226 3 SW 0 62.2 445
10:58:50 21 987 222 2 SW 0 62.4 440
11:01:49 20 987 218 1 SW 0 62.8 434
11:04:50 20 987 208 3 SO 0 62.4 440
11:07:47 20 987 198 2 SW 0 62.7 448
11:10:49 19 987 223 3 SO 0 62.7 445
11:13:47 19 988 226 6 S 0 63.8 445
11:16:48 20 988 217 3 SW 0 64.4 440
11:19:49 20 988 205 2 SW 0 64.1 448
11:22:50 20 988 201 2 SO 0 63.1 445
11:25:48 20 988 192 3 W 0 63.1 446
11:28:48 20 988 180 3 W 0 63.7 448
11:31:48 19 988 189 4 S 0 65.6 439
11:34:48 19 987 182 3 SW 0 66.6 440
11:37:48 18 988 173 6 SW 0 67.2 436
11:40:48 18 988 142 2 SW 0 68.1 440
11:43:47 18 989 132 4 O 0 68.8 445
11:46:45 17 988 154 4 0 71.8 451
11:49:48 15 989 156 1 W 0.515 78.3 445
11:52:46 14 989 159 2 S 0 81.7 445
11:55:46 14 989 172 2 S 0 86 442
11:58:46 13 989 176 3 SO 0 90 443
12:01:49 13 989 187 1 SW 0.2575 91.4 451
12:04:50 13 989 197 4 S 0.2575 93.2 448
12:07:49 13 990 199 9 W 0 93.5 454
12:10:47 13 989 207 0 S 0 94 442
12:13:50 13 989 208 0 SO 0 94.4 454
12:16:50 13 989 210 0 NO 0 94.4 454
12:19:49 14 989 204 0 NW 0 94.9 450
12:22:47 14 990 212 1 S 0 95.2 453
12:25:45 14 990 215 0 S 0 95.7 454
12:28:49 14 990 223 1 NO 0 95.9 451
12:31:47 14 989 226 0 SO 0 96.3 444
12:34:50 15 990 229 5 SO 0 96.5 450
12:37:49 15 991 224 2 SW 0 96.3 448
12:40:47 15 989 224 4 W 0 94 454
12:43:48 15 990 228 4 SO 0 93.5 456
12:46:50 16 990 228 0 SW 0 93.3 452
12:49:48 16 990 231 0 S 0 93.1 451
12:52:47 17 989 231 1 S 0 91.5 454
12:55:48 17 990 231 2 SW 0 88.5 454
12:58:50 17 990 230 14 SO 0 87.1 462
13:01:49 17 990 231 5 S 0 86.3 460
13:04:48 17 989 234 6 SW 0 85.7 456
13:07:48 18 990 232 0 S 0 87.4 450
13:10:50 19 990 230 2 S 0 85.8 445
13:13:48 19 989 228 2 SO 0 83.3 447
13:16:47 18 990 231 2 SW 0 81.3 454
13:19:49 18 990 232 2 N 0 79.5 448
13:22:47 18 990 233 2 NW 0 79.4 457
13:25:49 18 989 234 2 SO 0 80.1 453
13:28:47 18 990 231 3 SO 0 81.1 459
13:31:48 19 990 228 2 W 0 80.1 451
13:34:47 19 990 224 0 SW 0 79.7 444
13:37:47 19 991 233 5 W 0 78.9 444
13:40:48 19 990 232 8 SW 0 79.1 444
13:43:47 19 990 231 5 W 0 78.2 445
13:46:46 20 991 229 4 SO 0 72.4 445
13:49:50 20 990 228 5 S 0 68.1 445
13:52:30 18 991 233 1 NW 0 61.1 440
13:55:47 21 990 231 2 SW 0 71.6 441
13:58:48 21 990 234 1 SW 0 70.8 439
14:01:47 21 991 236 4 O 0 72.2 448
14:04:48 22 990 232 5 SO 0 67.4 454
14:07:49 21 991 231 2 SO 0 66 459
14:10:49 21 991 230 4 NO 0 63 457
14:13:46 20 991 234 6 S 0 63.1 456
14:16:48 20 991 227 6 W 0 66.8 450
14:19:47 20 991 223 2 S 0 67.5 448
14:22:47 19 991 227 2 N 0 67.5 445
14:25:45 19 991 242 4 S 0 68.3 446
14:28:50 19 991 226 8 SO 0 69.7 442
14:31:47 19 991 208 4 NO 0 70.1 445
14:34:48 19 991 209 3 S 0 71.2 446
14:37:47 18 991 224 1 W 0 71.4 446
14:40:49 18 991 227 8 SW 0 72.3 444
14:43:47 19 991 235 8 N 0 73.1 443
14:46:47 19 991 216 0 O 0 71.1 445
14:49:47 19 991 221 6 S 0 70.9 446
14:52:48 19 991 228 7 W 0 71 448
14:55:45 19 991 243 3 W 0 71.1 445
14:58:48 20 991 241 4 S 0 66.3 445
15:01:47 21 991 244 9 SW 0 66.1 445
15:04:49 22 991 223 2 S 0 65.9 442
15:07:46 22 991 227 4 S 0 64.7 442
15:10:46 21 991 234 1 0 63.1 442
15:13:48 21 991 228 2 W 0 63.6 436
15:16:49 21 991 232 8 SO 0 62.5 439
15:19:49 21 991 245 6 SO 0 59.1 442
15:22:48 21 991 237 5 SW 0 59.1 442
15:25:47 21 991 246 5 O 0 58.7 445
15:28:47 22 992 246 5 SW 0 52.6 439
15:31:46 22 991 246 4 S 0 51.7 442
15:34:49 22 991 240 10 SO 0 51.8 442
15:37:48 23 991 246 3 SO 0 50.9 439
15:40:47 23 991 229 3 W 0 51.7 442
15:43:50 22 991 236 7 SW 0 49.7 439
15:46:46 22 991 247 7 O 0 48.8 435
15:49:48 22 991 224 1 O 0 50.7 436
15:52:46 21 991 230 3 SO 0 52.1 439
15:55:47 21 991 227 3 W 0 51.2 445
15:58:46 20 991 222 1 NO 0 51.9 445
16:01:48 20 991 224 1 SW 0 53.2 468
16:04:48 20 991 236 3 S 0 53.5 465
16:07:47 21 991 247 3 O 0.2575 57.3 459
16:10:47 22 991 232 8 NW 0 51.5 459
16:13:49 22 991 247 4 W 0 47.7 459
16:16:30 20 991 233 19 S 0 40 454
16:19:47 22 991 246 12 W 0 42.5 454
16:22:43 22 991 247 3 S 0 43.6 447
16:25:49 22 991 231 5 SO 0 44.4 448
16:28:48 22 991 247 4 S 0 43 446
16:31:47 23 991 229 2 O 0 43.7 451
16:34:50 22 991 228 6 SO 0 42.6 442
16:37:48 22 991 247 5 NO 0 44.9 442
16:40:48 23 991 247 3 SW 0 45.3 445
16:43:49 23 991 247 8 SW 0 42.3 442
16:46:47 23 991 241 6 SO 0 41.1 442
16:49:50 22 991 236 8 SW 0 41.3 442
16:52:50 22 991 245 3 SW 0 43.5 442
16:55:47 22 991 246 2 W 0 45.1 448
16:58:47 23 991 238 1 SO 0 46.7 445
17:01:47 23 991 230 8 S 0 42.3 445
17:04:47 22 991 228 5 W 0 41.5 445
17:07:47 21 991 236 5 SW 0 43.7 442
17:10:49 21 991 242 3 SO 0 45.4 445
17:13:48 22 991 247 1 S 0 45.9 445
17:16:49 22 991 247 2 S 0 45.5 451
17:19:50 24 991 247 3 SW 0 45 448
17:22:48 25 991 247 4 S 0 41.9 447
17:25:47 25 991 247 3 SW 0 38.9 445
17:28:47 24 991 247 4 SW 0 37.8 444
17:31:51 24 991 247 10 NW 0 38.8 445
17:34:46 24 991 247 3 S 0 39.1 442
17:37:47 24 991 247 4 S 0 38.9 442
17:40:47 24 991 247 2 S 0 39.1 436
17:43:31 23 992 247 5 NO 0 40 439
17:46:48 25 991 247 0 S 0 37.6 436
17:49:48 25 991 246 6 SW 0 35.7 436
17:52:47 24 991 246 6 SO 0 35 436
17:55:48 24 991 247 4 SO 0 37.6 434
17:58:50 25 991 247 3 SW 0 39.2 442
18:01:49 26 991 247 2 NO 0 38.8 442
18:04:47 26 991 247 2 N 0 38.2 448
18:07:47 26 991 247 6 SW 0 37.3 442
18:10:51 26 991 246 0 SW 0 35.5 439
18:13:49 26 991 247 10 NO 0 35.5 442
18:16:46 26 991 247 2 S 0 35.6 442
18:19:46 25 991 246 1 SO 0 36.4 445
18:22:47 25 991 241 3 SO 0 37.9 445
18:25:47 24 991 245 3 SO 0 38.6 445
18:28:48 23 992 239 6 SW 0 38.5 445
18:31:47 22 992 242 5 O 0 40.4 439
18:34:49 22 991 245 0 SO 0 41.2 442
18:37:47 22 992 230 6 SW 0 41.4 442
18:40:47 21 991 241 10 SO 0 42.1 441
18:43:47 21 991 241 4 SO 0 42.9 442
18:46:47 21 991 242 1 SW 0 44.1 448
18:49:47 21 991 241 2 S 0 44.7 444
18:52:47 20 991 223 1 O 0 45.6 448
18:55:45 20 991 234 1 W 0 46.9 453
18:58:48 19 992 227 1 SW 0 49.2 454
19:01:47 19 991 224 1 O 0 50.9 459
19:04:47 19 992 223 1 S 0 51.7 454
19:07:48 19 992 219 1 N 0 52.2 451
19:10:50 19 992 219 0 NO 0 53.5 450
19:13:50 18 992 216 4 SW 0 54.3 455
19:16:48 18 992 218 1 SO 0 54.3 454
19:19:48 18 992 218 1 SO 0 54.2 456
19:22:47 18 992 219 1 W 0 54.5 454
19:25:48 18 992 219 5 S 0 54.1 451
19:28:48 18 992 221 4 SO 0 54 454
19:31:47 18 992 217 0 SO 0 54.7 454
19:34:46 18 992 215 2 SO 0 54.7 455
19:37:48 18 992 214 0 S 0 55.6 453
19:40:50 18 991 212 1 S 0 56 447
19:43:47 18 992 204 2 W 0 56.1 444
19:46:49 18 992 198 0 SO 0 56.2 454
19:49:47 17 993 199 5 SO 0 56.1 454
19:52:47 17 993 199 2 SO 0 55.9 454
19:55:45 17 993 201 0 O 0 56 453
19:58:50 17 993 199 2 SW 0 56.8 451
20:01:49 17 992 199 2 S 0 57.9 448
20:04:46 16 992 196 3 S 0 58.6 453
20:07:50 16 992 191 0 SW 0 59 463
20:10:46 16 993 194 0 S 0 60.1 462
20:13:48 16 993 194 0 S 0 60.8 462
20:16:48 16 993 191 0 SO 0 61.1 462
20:19:48 16 993 187 1 S 0 61.2 460
20:22:48 16 993 184 0 S 0 61 456
20:25:49 16 993 178 2 O 0 61.2 461
20:28:48 16 993 175 1 S 0 61.5 462
20:31:48 16 993 171 2 NW 0 61.2 457
20:34:47 16 993 167 0 S 0 61.6 462
20:37:49 16 993 161 0 SO 0 62 463
20:40:50 15 993 136 0 S 0 62.1 463
20:43:46 15 993 119 0 W 0 62.6 459
20:46:47 15 993 122 0 S 0 63.3 460
20:49:48 15 993 138 0 S 0 63.6 460
20:52:51 15 994 139 0 W 0 63.8 468
20:55:49 15 994 145 0 SO 0 64.1 468
20:58:45 15 994 130 5 O 0 65.6 463
21:01:48 15 995 127 2 N 0 68.6 463
21:04:49 15 995 118 2 NW 0 70.3 463
21:07:47 15 994 107 2 N 0 70.8 468
21:10:47 15 995 97 1 NO 0 71 463
21:13:47 14 994 87 2 NW 0 71.1 465
21:16:47 14 994 77 0 NW 0 71.2 463
21:19:46 14 995 69 0 S 0 71.5 463
21:22:48 14 994 60 3 SO 0 71.7 466
21:25:46 14 995 50 0 NW 0 71.1 463
21:28:46 14 994 41 0 NW 0 70.9 462
21:31:49 13 995 32 0 NW 0 70.9 457
21:34:48 13 995 24 0 NW 0 70.7 460
21:37:49 13 995 19 0 NW 0 71 460
21:40:48 13 994 13 0 SO 0 71.5 460
21:43:47 12 995 9 0 SO 0 72.3 451
21:46:47 12 995 6 0 SO 0 72.9 457
21:49:46 12 995 4 0 SO 0 73.4 454
21:52:48 12 995 3 0 SO 0 73.8 460
21:55:46 12 995 0 1 SO 0 74 463
21:58:46 12 995 0 0 SO 0 75.1 456
22:01:48 12 995 0 0 SO 0 75.9 460
22:04:47 12 995 0 1 SO 0 76.6 460
22:07:49 12 995 0 0 SO 0 76.7 460
22:10:48 12 995 0 0 SO 0 76.7 460
22:13:48 12 995 0 0 SO 0 76.9 463
22:16:48 12 995 0 0 SO 0 77.1 466
22:19:47 12 995 0 0 SO 0 77.1 459
22:22:46 12 995 0 0 SO 0 77.1 463
22:25:45 12 995 0 0 O 0 77.5 454
22:28:46 12 995 0 0 O 0 77.2 460
22:31:47 12 995 0 0 O 0 76.8 460
22:34:45 12 995 0 0 O 0 76.6 465
22:37:50 12 995 0 0 O 0 76.3 463
22:40:47 12 995 0 0 O 0 76.3 469
22:43:48 12 995 0 0 SO 0 76.3 471
22:46:48 12 995 0 0 S 0 76.2 472
22:49:47 12 995 0 2 SW 0 76.6 465
22:52:48 13 995 0 1 SO 0 76.7 466
22:55:48 13 995 0 0 NO 0 76.4 469
22:58:46 13 995 0 1 S 0 75.9 469
23:01:47 13 995 0 0 SW 0 76.1 468
23:04:49 13 995 0 0 SO 0 76.3 471
23:07:45 13 995 0 2 S 0 75.9 465
23:10:48 13 995 0 0 SO 0 75.7 468
23:13:45 13 995 0 0 SO 0 75.4 471
23:16:47 13 995 0 0 SO 0 75.8 474
23:19:50 13 995 0 0 SO 0 76.3 477
23:22:46 13 995 0 0 SO 0 76.5 465
23:25:48 13 995 0 0 SO 0 76.9 463
23:28:48 12 995 0 0 SO 0 76.8 457
23:31:47 12 995 0 0 NO 0 77 459
23:34:44 12 995 0 0 N 0 77.6 465
23:37:46 12 995 0 0 SO 0 77.4 475
23:40:48 12 995 0 0 SO 0 77.3 482
23:43:47 12 995 0 0 SO 0 77.7 474
23:46:46 11 995 0 0 SO 0 78.1 474
23:49:48 11 995 0 0 SO 0 78.5 474
23:52:47 11 995 0 0 SO 0 79 478
23:55:47 11 995 0 0 SO 0 79.3 480
23:58:48 11 995 0 0 SO 0 79.7 480

Letzte Änderung : 22-Jul-2022
Copyright Jens Köhler, Wolfsburg, Obere Dorfstraße 10d